EW4964 Weather Reports


time (UTC)temp
C
wind
direction
speed
KPH
gust
KPH
rain 1hr
cm
rain 24hr
cm
rain mn
cm
humidity
%
barometer
mb
20260507204507 9 1 3.2 9.7 0.00 0.00 0.00 46 1015.3
20260507203008 9 359 3.2 8.0 0.00 0.00 0.00 45 1015.4
20260507200009 15 337 8.0 24.1 0.00 0.00 0.00 32 1015.5
20260507194508 15 337 8.0 24.1 0.00 0.00 0.00 32 1015.5
20260507193008 15 337 8.0 24.1 0.00 0.00 0.00 32 1015.5
20260507191507 15 337 8.0 24.1 0.00 0.00 0.00 32 1015.5
20260507190008 15 337 8.0 24.1 0.00 0.00 0.00 32 1015.5
20260507184508 15 337 8.0 24.1 0.00 0.00 0.00 32 1015.5
20260507183008 15 337 8.0 24.1 0.00 0.00 0.00 32 1015.5
20260507181507 15 337 8.0 24.1 0.00 0.00 0.00 32 1015.5
20260507180008 15 337 8.0 24.1 0.00 0.00 0.00 32 1015.5
20260507174507 15 337 8.0 24.1 0.00 0.00 0.00 32 1015.5
20260507173007 15 337 8.0 24.1 0.00 0.00 0.00 32 1015.5
20260507171507 15 337 8.0 24.1 0.00 0.00 0.00 32 1015.5
20260507170007 15 337 8.0 24.1 0.00 0.00 0.00 32 1015.5
20260507163007 15 337 8.0 24.1 0.00 0.00 0.00 32 1015.5
20260507161507 15 337 8.0 24.1 0.00 0.00 0.00 32 1015.5
20260507160007 15 337 8.0 24.1 0.00 0.00 0.00 32 1015.5
20260507154507 15 337 8.0 24.1 0.00 0.00 0.00 32 1015.5
20260507151507 15 337 8.0 24.1 0.00 0.00 0.00 32 1015.5
20260507150007 15 337 8.0 24.1 0.00 0.00 0.00 32 1015.5
20260507144506 15 337 8.0 24.1 0.00 0.00 0.00 32 1015.5
20260507143007 15 337 8.0 24.1 0.00 0.00 0.00 32 1015.5
20260507141507 15 337 8.0 24.1 0.00 0.00 0.00 32 1015.5
20260507140007 15 337 8.0 24.1 0.00 0.00 0.00 32 1015.5
20260507134507 15 337 8.0 24.1 0.00 0.00 0.00 32 1015.5
20260507133007 15 337 8.0 24.1 0.00 0.00 0.00 32 1015.5
20260507131506 15 337 8.0 24.1 0.00 0.00 0.00 32 1015.5
20260507130007 15 337 8.0 24.1 0.00 0.00 0.00 32 1015.5
20260507124507 15 337 8.0 24.1 0.00 0.00 0.00 32 1015.5
20260507123006 15 337 8.0 24.1 0.00 0.00 0.00 32 1015.5
20260507120006 15 337 8.0 24.1 0.00 0.00 0.00 32 1015.5
20260507113007 15 337 8.0 24.1 0.00 0.00 0.00 32 1015.5
20260507111507 15 337 8.0 24.1 0.00 0.00 0.00 32 1015.5
20260507110007 15 337 8.0 24.1 0.00 0.00 0.00 32 1015.5
20260507104506 15 333 8.0 16.1 0.00 0.00 0.00 32 1015.3
20260507101507 14 276 8.0 19.3 0.00 0.00 0.00 33 1015.2
20260507100007 14 249 6.4 14.5 0.00 0.00 0.00 34 1015.1
20260507093006 13 278 8.0 16.1 0.00 0.00 0.00 35 1015.0
20260507091506 13 234 9.7 19.3 0.00 0.00 0.00 35 1015.0
20260507090006 13 267 6.4 14.5 0.00 0.00 0.00 39 1015.0
20260507084506 12 259 8.0 14.5 0.00 0.00 0.00 39 1014.6
20260507083006 12 292 6.4 17.7 0.00 0.00 0.00 38 1014.6
20260507081506 12 276 4.8 12.9 0.00 0.00 0.00 41 1014.3
20260507080006 11 271 6.4 12.9 0.00 0.00 0.00 41 1014.3
20260507073005 11 341 4.8 16.1 0.00 0.00 0.00 47 1014.2
20260507070010 11 290 6.4 14.5 0.00 0.00 0.00 50 1014.1
20260507064505 11 294 6.4 14.5 0.00 0.00 0.00 51 1014.2
20260507063006 11 280 6.4 11.3 0.00 0.00 0.00 53 1014.1
20260507061508 10 266 6.4 14.5 0.00 0.00 0.00 55 1013.8
20260507054505 10 270 8.0 14.5 0.00 0.00 0.00 56 1013.5
20260507051506 10 247 9.7 16.1 0.00 0.00 0.00 61 1013.2
20260507050006 10 284 8.0 14.5 0.00 0.00 0.00 62 1013.1
20260507044506 10 288 4.8 11.3 0.00 0.00 0.00 64 1012.9
20260507043005 9 282 4.8 14.5 0.00 0.00 0.00 64 1012.7
20260507041505 9 328 8.0 14.5 0.00 0.00 0.00 64 1012.7
20260507040005 9 314 8.0 16.1 0.00 0.00 0.00 63 1012.4
20260507034505 9 281 4.8 8.0 0.00 0.00 0.00 63 1012.2
20260507024505 9 358 1.6 4.8 0.00 0.00 0.00 61 1011.7
20260507023005 9 349 1.6 6.4 0.00 0.00 0.00 60 1011.8
20260507021505 9 45 1.6 3.2 0.00 0.00 0.00 58 1011.6
20260507020004 9 45 1.6 6.4 0.00 0.00 0.00 59 1011.6
20260507014505 9 19 1.6 6.4 0.00 0.00 0.00 59 1011.2
20260507013007 9 5 3.2 4.8 0.00 0.00 0.00 59 1011.4
20260507011504 9 355 1.6 6.4 0.00 0.00 0.00 57 1011.4
20260507010005 10 338 3.2 6.4 0.00 0.00 0.00 57 1011.0
20260507004504 10 284 3.2 6.4 0.00 0.00 0.00 57 1011.1
20260507003005 10 327 3.2 6.4 0.00 0.00 0.00 59 1011.0
20260507001504 10 90 4.8 11.3 0.00 0.00 0.00 58 1010.8
20260507000004 10 90 6.4 14.5 0.00 0.00 0.00 59 1010.6
20260506234505 10 90 6.4 12.9 0.00 0.00 0.00 60 1010.3
20260506233005 10 66 8.0 19.3 0.00 0.00 0.00 59 1010.2
20260506231507 10 45 8.0 17.7 0.00 0.00 0.00 57 1010.1
20260506230008 10 45 9.7 19.3 0.00 0.00 0.00 54 1010.3
20260506224507 10 65 12.9 25.7 0.00 0.00 0.00 52 1009.8
20260506223008 11 9 6.4 12.9 0.00 0.00 0.00 47 1009.9
20260506221508 12 277 6.4 12.9 0.00 0.00 0.00 44 1009.5
20260506220010 12 253 4.8 9.7 0.00 0.00 0.00 43 1009.5
20260506214507 13 185 6.4 12.9 0.00 0.00 0.00 42 1009.4
20260506213007 13 217 6.4 12.9 0.00 0.00 0.00 42 1009.2
20260506210008 12 181 6.4 11.3 0.00 0.00 0.00 43 1009.0